Showing default

ORBCOMM FM 103, 40091

Orbit data source: Space-Track

ORBCOMM FM 103, 40091 is a payload satellite owned by Orbcomm (US) in LEO that was launched on Mon, 14 Jul 2014 UTC via an FALCON 9 launch vehicle from the Air Force Eastern Test Range (AFETR). Payload-class satellites include a variety of spacecraft equipped with specific instruments for various scientific and technological missions. These include communications satellites like Starlink; space stations such as the ISS; scientific satellites like the Hubble; Earth observation satellites from companies like Planet Labs, Umbra, and HawkEye 360; GPS; miniature CubeSats for education and research; and military/defense satellites.

Loading next visibility...
Identifier
40091, 2014-040F
Orbit
LEO
Country
Flag of USUS / ORB
Related business
Manufacturer
SNC Louisville
Mission
Non-operational Commercial Communications
Bus & Motor
SN-100A, Unknown motor
Mass
172 kg wet, 158 kg dry
Launch date (UTC)
2014-07-14 (11 years ago)
Launch vehicle
FALCON 9
Launch site
Air Force Eastern Test Range (AFETR)
Object type
Payload
Rocket body
Debris
Shape & HBR
Box + 1 Pan + 1 Ant, 6.5 m
Radar Cross Section
2.222 m², Medium (>0.1 m² and < 1m²)

Expand to show TLE details & history
Last TLE update: 1 day ago

TLE from 1 day ago
0 ORBCOMM FM 103
1 40091U 14040F   25259.86138447  .00000451  00000-0  13319-3 0  9997
2 40091  47.0057 304.8234 0002282 313.3665  46.7030 14.58301675577485
Epoch: 2025-09-16T20:40Z
TLE epoch observation values (Epoch: 2025-09-16T20:40:23.618Z)
Latitude
-0.00003°
Longitude
-1.32065°
Altitude
697.772 km
Speed
7.509 km/s
True Right ascension
20h 19m 17s
True Declination
0° 00' 00"
Sunlit
Object was in full shadow at epoch
Visualization orbit readout
Latitude
Unknown
Longitude
Unknown
Altitude
Unknown
Speed
Unknown
Apparent Right ascension
Unknown
Apparent Declination
Unknown
Sunlit
N/A
Visualization observer readout
Local Sidereal Time
13:36:46
Azimuth
Unknown
Elevation
Unknown
Doppler factor
Unknown
Orbital elements
Apogee altitude
701.512 km
Perigee altitude
698.282 km
Semi-major axis
7,078.034 km
Eccentricity
0.00023
Inclination
47.0057°
RAAN
304.8234°
Arg. of periapsis
313.3665°
True anomaly
46.72204°
Mean anomaly
46.703°
Eccentric anomaly
46.71252°
Mean motion
3.6448 °/min
Orbital period
98.77 mins
BSTAR
0.00013319
Loading maneuver chart data...
Computing Atmospheric mass density...
Loading historical data...
Loading historical data...
Loading historical data...
Loading historical data...
Loading historical data...
Loading historical data...
Loading historical data...

Documentation

Showing up to 5 results
|